Location: Chrome
(40.5765°N, 74.2163°W)
Time: 23:18:17
(UTC+00:00)

Feng Yun 1-1 Rocket - Pass Details

Date: 06 December 2019
Orbit: 830 x 933 km, 99.2° (Epoch: 20 January)

Event Time Altitude Azimuth Distance (km) Brightness Sun altitude
Rises 21:54:55 0° 150° (SSE) 3,384 7.3 -5.1°
Reaches altitude 10° 21:57:19 10° 146° (SE) 2,444 6.5 -5.5°
Maximum altitude 22:02:32 53° 71° (ENE) 1,018 4.3 -6.4°
Drops below altitude 10° 22:07:46 10° 356° (N) 2,445 6.4 -7.3°
Sets 22:10:10 0° 351° (N) 3,386 7.2 -7.7°
